Weather in Sacramento

United States     38°33′42″N   121°26′59″W
В апреле 2022 года жителям России запретили посещать сайт meteo.paraplan.net по решению Генеральной прокуратуры. Аудитория сайта уменьшилась в 10 раз. Владельцы сайта не видят смысла в поддержке погодного сервера в таких условиях. Сайт будет закрыт в октябре.
temp.,
°C
wind,
m/s
gust,
m/s
humid.,
%
clouds,
%
prec.,
mm/h
press.,
hPa
HPBL,
m
4 october, tue
tue423:00+17ssw34730 0.0 1015116
02:00+15s33810 0.0 101594
05:00+14s22875 0.0 101555
08:00+16sw017917 0.0 101664
11:00+24nw11465 0.0 1016448
14:00+30nw11315 0.0 1014789
17:00+31wsw112610 0.0 1012902
20:00+22sw34470 0.0 101373
5 october, wed
wed523:00+20ssw22553 0.0 101340
02:00+18s12610 0.0 101435
05:00+17se01630 0.0 101422
08:00+19ese00590 0.0 101528
11:00+26nw22370 0.0 1015473
14:00+31nw21260 0.0 1013879
17:00+32w11230 0.0 1012965
20:00+25sw33350 0.0 101322
6 october, thu
thu623:00+21ssw22470 0.0 101434
02:00+20sse12525 0.0 101430
05:00+18sw005613 0.0 101517
08:00+19nw11525 0.0 101627
11:00+27n223012 0.0 1016485
14:00+32nnw222082 0.0 1015838
17:00+33wnw221827 0.0 1013906
20:00+26sw22291 0.0 101417
7 october, fri
fri723:00+22sw223855 0.0 101515
02:00+21wnw004014 0.0 101612
05:00+19nw124178 0.0 101617
08:00+20nnw23373 0.0 101763
11:00+28nnw33231 0.0 1017454
14:00+33nw23150 0.0 1014814
17:00+34wnw23140 0.0 1012834
20:00+27ssw22210 0.0 101314
8 october, sat
sat823:00+23ssw22330 0.0 101427
02:00+21sse12380 0.0 101427
05:00+20nne11380 0.0 101415
08:00+21n11320 0.0 101524
11:00+28nnw22170 0.0 1015436
14:00+33wnw22140 0.0 1013744
17:00+34w23140 0.0 1011765
20:00+26sw33200 0.0 101237